Wind_Speed
95 95 90 91 89 87 84 83 79 78 76 76 73 74 78 75 75 73 70 68 65 60 57 53 53 52 51 50 47 45 43 40 38 37 33 32 30 30 28 26 25 24 22 19 18
96 96 98 91 92 91 87 86 82 79 80 78 77 77 77 79 76 76 75 71 68 64 59 56 56 54 54 54 53 49 46 44 42 41 38 35 34 32 30 29 27 25 24 21 20
101 102 99 99 94 95 91 87 86 83 82 81 81 78 79 80 80 80 78 74 71 68 65 60 60 59 57 56 55 54 50 48 46 45 43 40 37 36 35 33 31 30 28 26 26
107 105 103 101 99 98 96 94 91 86 86 84 83 86 78 81 83 82 81 77 76 72 70 66 65 63 60 59 57 55 53 50 49 47 47 46 43 40 40 40 37 36 35 32 31
113 110 107 107 104 102 101 99 96 91 89 87 88 85 85 80 82 85 85 83 79 77 75 71 69 67 64 61 61 58 56 53 50 48 48 49 47 47 45 45 43 43 40 37 36
118 115 111 111 108 104 103 102 98 96 92 92 92 87 85 85 87 87 86 85 83 82 79 76 72 71 68 65 62 59 57 55 51 51 53 54 53 51 51 48 47 48 46 44 42
118 118 118 116 112 109 108 108 105 97 95 94 95 93 86 85 89 88 88 87 86 85 83 81 77 73 73 71 66 64 61 59 57 58 58 59 57 59 54 53 52 52 51 50 48
114 120 121 118 118 115 112 113 111 104 103 101 96 96 88 88 86 87 90 90 89 90 88 85 83 78 77 75 72 69 66 62 64 63 63 61 64 62 60 57 55 56 56 55 56
113 119 124 124 121 119 118 113 118 113 110 103 99 98 94 89 87 89 88 90 91 90 91 90 89 84 82 79 77 72 69 70 72 70 69 66 69 66 63 62 61 60 59 61 60
110 116 125 125 125 122 121 119 121 119 112 108 105 100 95 94 90 88 88 88 89 91 89 88 88 86 85 83 79 78 78 77 76 76 72 70 72 71 67 63 64 65 65 65 64
108 114 120 127 126 125 125 123 121 120 115 111 105 105 103 102 98 94 95 89 89 89 86 85 83 82 83 85 85 85 82 80 80 79 76 74 72 74 70 66 67 69 68 68 66
108 112 118 126 127 128 128 123 121 123 122 115 115 112 110 110 108 106 97 96 93 91 90 86 79 80 84 85 83 84 83 81 80 79 75 73 67 70 72 68 71 74 75 73 72
112 112 116 122 129 131 126 125 128 124 127 125 121 118 117 117 115 111 110 100 100 95 94 92 85 84 82 80 81 81 80 82 84 83 78 72 70 66 69 71 70 70 72 72 76
119 115 118 121 127 129 128 129 128 127 131 131 126 120 119 116 115 115 110 113 106 105 101 96 95 90 87 83 86 85 85 85 84 84 82 81 78 75 74 77 78 80 78 76 76
125 121 119 120 118 124 128 130 130 131 136 132 132 124 122 117 112 115 122 115 110 109 108 102 97 98 95 91 92 92 94 91 89 88 87 86 86 75 80 83 86 88 86 84 82
130 127 123 120 120 118 123 130 132 138 143 138 131 126 123 119 119 119 120 119 116 111 110 111 107 102 99 100 100 97 95 96 99 99 94 93 93 86 85 87 91 92 90 90 90
133 131 127 122 116 121 122 126 137 144 141 139 131 127 121 123 126 123 119 118 120 117 112 112 111 110 108 107 106 105 104 107 109 107 103 104 105 97 97 97 95 92 92 92 92
130 134 132 126 121 121 126 130 137 141 142 135 131 131 131 129 130 127 126 123 120 118 117 116 115 112 111 113 114 113 114 114 115 112 108 107 103 98 101 106 106 104 103 99 95
120 135 135 131 128 127 131 138 139 138 136 136 132 136 134 133 133 132 130 128 126 122 116 119 118 121 118 120 118 116 115 119 119 116 115 110 103 102 100 106 109 107 108 107 105
111 124 137 135 134 136 137 135 134 136 136 138 131 133 134 132 134 137 133 126 126 124 125 120 119 120 125 128 127 124 120 120 122 121 119 113 110 103 104 110 109 109 111 111 108
102 114 127 140 142 142 143 137 133 133 134 135 132 130 128 134 133 136 138 134 133 132 132 132 130 127 126 126 127 131 130 127 129 127 124 121 116 106 108 112 114 114 112 113 113
89 106 118 133 145 145 145 144 133 130 129 130 130 130 129 128 134 134 134 133 134 136 138 137 138 135 130 129 131 132 132 135 131 130 131 131 118 112 110 115 118 121 122 123 121
80 93 111 123 138 147 148 140 136 137 134 132 125 130 126 125 129 130 131 130 134 136 137 141 144 142 138 134 135 135 133 134 135 138 137 133 119 112 116 115 118 121 123 125 125
69 79 95 114 124 140 148 144 143 143 141 137 125 122 125 124 127 126 125 124 128 130 134 140 145 143 141 135 136 135 136 138 140 142 134 139 126 119 122 124 126 127 127 127 127
62 72 84 100 115 127 139 149 153 146 143 138 134 128 125 126 126 121 121 122 125 126 130 133 137 140 140 142 144 139 139 141 143 134 139 132 136 125 126 128 130 132 131 134 134
53 64 74 88 104 119 129 144 149 151 147 144 139 138 131 127 120 121 122 123 124 128 131 134 132 135 137 138 141 144 144 142 140 139 143 138 138 128 129 137 136 137 137 136 136
49 55 63 77 91 104 117 125 134 141 146 147 143 143 137 133 127 128 127 128 131 131 133 135 133 135 136 133 138 145 139 138 141 142 141 145 139 132 134 131 132 136 139 139 139
Wind_Direction
219 217 217 218 211 211 216 217 215 223 221 225 224 224 224 223 223 223 225 226 227 228 231 232 232 234 233 230 228 231 235 237 239 242 243 244 248 251 253 255 253 252 254 257 265
222 217 216 218 216 212 212 215 218 222 223 223 225 225 225 224 223 223 224 225 227 229 230 233 233 233 235 232 233 234 237 238 240 240 243 244 248 249 250 252 254 256 249 255 261
222 219 219 218 220 215 210 214 217 221 223 222 226 226 226 224 224 223 224 225 227 229 230 231 233 234 235 234 235 234 236 238 241 241 244 247 249 251 249 251 253 257 251 256 266
224 221 218 216 217 217 214 211 215 219 222 224 224 227 228 226 226 226 225 225 227 229 231 232 233 233 235 235 235 236 234 237 241 244 244 246 251 252 254 254 252 252 253 257 264
225 222 217 216 216 218 218 216 213 217 222 224 224 225 226 228 227 227 226 225 227 229 231 231 232 233 234 235 236 236 236 237 240 242 245 248 250 253 253 255 257 257 254 257 262
224 221 217 216 215 218 219 216 214 217 220 223 223 222 223 227 229 229 229 228 227 230 231 231 233 234 235 236 236 237 238 238 241 244 248 251 251 253 253 256 256 260 257 258 261
219 219 217 216 217 216 217 216 216 216 217 222 225 221 222 226 229 230 231 231 230 232 232 233 233 235 236 236 238 238 239 239 241 243 247 251 252 254 256 255 258 259 260 259 260
219 218 217 216 217 217 218 217 217 216 218 220 224 223 221 225 227 230 232 233 232 233 234 234 234 234 236 238 238 240 240 241 244 245 245 247 252 252 254 256 255 257 260 260 259
218 218 216 216 217 217 217 218 218 216 217 217 221 221 222 224 227 230 231 234 234 234 235 236 237 237 237 238 239 240 242 242 244 245 247 247 251 250 252 255 256 256 257 258 260
219 218 217 217 217 217 218 217 219 217 216 215 216 221 221 225 227 230 232 233 235 235 237 237 237 237 238 239 240 240 240 243 245 248 249 253 253 253 252 254 255 256 257 256 258
219 219 218 218 217 218 219 219 219 219 221 215 217 219 219 223 226 230 231 232 234 235 237 239 240 239 238 238 238 241 243 243 247 249 252 255 255 257 257 255 254 256 257 257 259
220 219 219 219 219 219 219 220 221 219 221 220 221 222 218 220 223 227 231 232 234 236 235 236 237 239 241 241 241 243 246 248 250 252 253 252 254 260 262 259 258 258 258 258 259
219 220 220 220 219 220 219 220 222 221 221 221 220 222 220 222 223 224 227 232 234 234 236 234 233 237 240 241 243 243 246 248 249 250 248 249 252 255 261 263 261 260 261 263 264
218 220 220 221 220 221 220 222 223 223 223 221 220 222 223 223 226 225 224 229 232 236 236 236 236 236 237 241 243 243 244 246 248 251 252 250 249 251 254 257 259 258 258 260 263
215 218 220 220 221 222 221 222 224 225 225 223 221 221 224 222 224 228 227 228 228 231 234 237 238 238 236 237 241 242 243 244 245 246 248 249 249 248 253 255 257 259 260 261 264
214 217 219 220 220 221 222 222 224 226 225 223 222 224 224 226 226 229 232 232 231 232 233 234 236 239 240 241 243 243 244 247 247 245 245 249 249 246 249 253 257 260 264 265 266
214 216 218 220 220 221 222 224 225 227 226 223 223 224 226 226 227 229 231 233 234 235 236 235 235 236 237 239 242 245 246 247 246 246 247 247 249 250 252 254 255 257 261 265 268
215 215 217 218 220 222 223 224 226 226 226 226 223 224 225 225 226 228 230 231 232 235 239 239 239 240 240 242 242 242 241 243 246 246 247 251 252 255 257 259 260 260 260 263 266
216 216 216 217 219 221 224 225 226 227 227 226 225 225 227 227 227 229 231 232 233 235 238 240 243 242 241 243 244 244 246 246 247 248 248 249 252 255 258 258 260 264 268 267 266
218 217 216 216 219 221 225 226 226 229 227 226 226 227 226 228 229 229 231 233 234 237 238 239 241 241 243 244 247 248 248 250 250 250 252 252 252 254 256 260 261 266 267 266 266
218 218 216 216 219 222 224 226 227 228 229 229 228 227 229 229 231 231 231 231 234 236 237 240 240 241 243 244 246 247 249 250 251 252 254 255 255 255 258 259 260 263 264 265 267
217 217 218 217 218 223 225 226 226 229 230 230 228 229 228 230 231 233 234 233 234 236 238 239 239 241 242 243 244 246 249 250 253 255 257 257 257 258 260 263 265 265 265 265 266
215 215 218 219 221 222 226 227 227 229 232 232 228 230 229 231 233 234 236 236 236 237 239 240 241 241 242 244 247 249 250 251 253 254 255 259 258 259 259 261 264 264 265 266 268
217 217 216 219 220 223 224 226 229 230 230 232 231 231 231 230 232 233 235 237 239 239 240 242 242 244 244 246 245 248 251 253 254 255 257 258 259 259 260 262 263 265 266 268 268
217 217 216 218 220 222 225 226 228 229 231 233 233 231 232 231 233 234 235 237 239 240 241 243 244 245 245 245 247 247 249 251 253 256 258 258 259 260 262 263 264 266 267 268 269
217 218 217 219 218 223 224 227 228 229 230 232 234 234 232 234 234 235 236 237 239 240 241 242 243 245 246 247 248 249 249 251 256 257 258 260 260 263 262 263 264 266 267 268 270
218 217 217 218 221 223 225 228 232 233 232 233 233 235 235 234 234 235 236 238 239 240 241 243 245 247 248 247 249 250 253 255 255 258 261 261 262 263 265 264 265 267 269 271 272
Height
10601 10612 10625 10636 10646 10655 10667 10678 10688 10699 10708 10717 10724 10732 10740 10749 10757 10766 10773 10780 10786 10795 10801 10807 10812 10817 10822 10828 10833 10836 10839 10843 10846 10848 10849 10853 10856 10859 10861 10863 10865 10867 10868 10870 10871
10582 10595 10608 10619 10631 10640 10650 10663 10675 10685 10696 10703 10712 10719 10728 10737 10746 10754 10761 10771 10779 10786 10792 10798 10803 10808 10813 10819 10824 10829 10833 10836 10838 10841 10843 10846 10849 10853 10855 10857 10858 10861 10864 10866 10867
10562 10576 10588 10601 10614 10626 10634 10647 10659 10670 10681 10690 10699 10708 10716 10727 10734 10741 10752 10762 10770 10776 10781 10787 10793 10799 10804 10810 10815 10820 10826 10828 10830 10833 10835 10838 10842 10845 10848 10850 10852 10855 10858 10861 10863
10541 10555 10569 10583 10596 10609 10619 10629 10642 10655 10666 10676 10685 10695 10706 10714 10724 10732 10741 10750 10757 10763 10770 10776 10782 10788 10793 10801 10806 10811 10817 10821 10823 10826 10828 10830 10833 10837 10841 10842 10846 10849 10851 10854 10857
10519 10536 10550 10565 10579 10592 10603 10614 10624 10636 10650 10660 10670 10681 10693 10702 10713 10715 10724 10735 10743 10750 10756 10763 10770 10777 10785 10791 10796 10802 10808 10812 10815 10818 10819 10820 10824 10827 10833 10835 10838 10840 10843 10847 10849
10497 10514 10531 10544 10559 10572 10586 10598 10608 10619 10632 10645 10656 10668 10680 10692 10692 10702 10712 10723 10732 10737 10744 10751 10759 10766 10776 10781 10787 10792 10798 10804 10808 10808 10807 10810 10815 10818 10823 10828 10830 10832 10836 10838 10840
10472 10491 10509 10524 10541 10553 10567 10578 10590 10602 10613 10628 10642 10653 10669 10673 10682 10693 10700 10710 10719 10724 10731 10739 10747 10756 10763 10770 10778 10782 10788 10793 10797 10797 10798 10799 10806 10806 10814 10818 10822 10826 10827 10829 10829
10450 10468 10486 10503 10518 10533 10547 10560 10573 10582 10595 10608 10626 10643 10657 10660 10671 10680 10686 10696 10704 10710 10717 10726 10734 10743 10751 10760 10764 10771 10778 10784 10783 10784 10787 10792 10789 10796 10804 10808 10814 10816 10817 10818 10817
10427 10445 10462 10480 10495 10511 10526 10539 10551 10560 10573 10591 10612 10626 10637 10647 10656 10661 10672 10680 10688 10697 10705 10713 10722 10734 10741 10748 10753 10762 10769 10768 10765 10769 10774 10782 10778 10785 10792 10799 10803 10805 10806 10806 10806
10406 10423 10441 10457 10474 10489 10503 10517 10528 10543 10558 10576 10592 10607 10630 10631 10642 10652 10658 10667 10674 10682 10690 10700 10709 10721 10729 10737 10745 10744 10745 10749 10753 10756 10764 10773 10770 10773 10780 10789 10789 10791 10792 10794 10797
10387 10403 10418 10435 10450 10466 10478 10494 10511 10533 10554 10572 10587 10593 10603 10609 10623 10633 10638 10649 10656 10665 10679 10685 10696 10710 10712 10715 10722 10727 10733 10738 10742 10746 10752 10758 10762 10758 10769 10776 10775 10776 10777 10780 10787
10367 10382 10397 10410 10428 10440 10456 10485 10497 10513 10521 10540 10554 10566 10580 10587 10598 10612 10621 10634 10644 10654 10660 10670 10688 10689 10693 10700 10708 10713 10720 10726 10726 10729 10736 10743 10754 10755 10753 10763 10762 10760 10760 10767 10772
10344 10361 10376 10387 10400 10417 10450 10463 10467 10489 10497 10515 10532 10540 10552 10562 10575 10590 10603 10616 10626 10636 10647 10654 10666 10669 10678 10685 10692 10700 10706 10706 10706 10711 10722 10731 10740 10745 10745 10743 10746 10745 10746 10753 10755
10321 10338 10353 10362 10381 10404 10431 10436 10452 10466 10469 10488 10507 10525 10541 10554 10565 10576 10586 10598 10611 10622 10626 10637 10650 10656 10665 10674 10677 10684 10686 10687 10692 10694 10703 10715 10724 10732 10731 10726 10727 10725 10732 10737 10739
10298 10314 10329 10350 10371 10386 10411 10419 10429 10432 10433 10463 10489 10509 10520 10539 10552 10561 10566 10578 10591 10600 10610 10627 10632 10639 10645 10652 10653 10664 10666 10668 10672 10677 10684 10695 10702 10720 10713 10712 10704 10706 10716 10719 10722
10274 10291 10308 10329 10350 10372 10385 10394 10401 10387 10401 10440 10474 10493 10511 10532 10538 10541 10549 10563 10574 10582 10594 10604 10616 10624 10633 10636 10638 10645 10649 10651 10653 10656 10671 10673 10676 10704 10699 10690 10690 10691 10696 10699 10702
10252 10272 10292 10310 10341 10349 10361 10363 10358 10354 10392 10425 10463 10486 10503 10509 10515 10519 10533 10547 10559 10567 10582 10590 10601 10605 10610 10614 10620 10626 10628 10626 10626 10633 10652 10651 10653 10688 10686 10679 10675 10680 10678 10679 10682
10233 10250 10270 10294 10315 10325 10331 10330 10323 10346 10372 10419 10450 10461 10466 10477 10487 10500 10509 10523 10540 10553 10562 10570 10582 10591 10598 10595 10594 10591 10594 10601 10599 10614 10623 10630 10654 10670 10667 10664 10662 10663 10661 10665 10667
10210 10229 10249 10274 10292 10298 10296 10294 10306 10334 10363 10399 10422 10426 10442 10457 10472 10480 10496 10512 10520 10530 10540 10547 10557 10563 10574 10569 10570 10577 10584 10578 10576 10589 10599 10615 10639 10647 10651 10641 10637 10641 10647 10650 10649
10190 10209 10232 10253 10263 10266 10265 10278 10299 10317 10343 10364 10388 10408 10424 10441 10450 10465 10476 10501 10509 10515 10519 10526 10530 10541 10543 10544 10553 10561 10561 10558 10562 10568 10573 10601 10606 10628 10632 10623 10622 10624 10624 10623 10625
10170 10190 10210 10229 10232 10235 10240 10260 10285 10300 10320 10349 10371 10389 10407 10419 10435 10440 10457 10472 10479 10485 10485 10492 10500 10512 10512 10529 10532 10532 10535 10534 10530 10540 10550 10571 10590 10615 10611 10604 10602 10599 10599 10600 10604
10150 10172 10186 10202 10214 10220 10228 10240 10270 10286 10300 10321 10349 10364 10384 10397 10404 10421 10438 10453 10452 10451 10459 10462 10464 10478 10494 10501 10504 10507 10516 10515 10521 10534 10529 10531 10576 10593 10589 10579 10576 10575 10575 10573 10576
10130 10148 10167 10180 10196 10208 10212 10239 10260 10269 10284 10295 10327 10339 10366 10380 10385 10403 10414 10423 10425 10431 10439 10440 10443 10454 10467 10486 10492 10495 10498 10498 10495 10486 10502 10512 10561 10563 10562 10558 10551 10548 10545 10546 10549
10119 10133 10152 10161 10179 10182 10202 10221 10232 10246 10259 10271 10304 10324 10339 10356 10364 10379 10392 10398 10403 10411 10408 10405 10418 10437 10457 10471 10455 10462 10470 10470 10462 10455 10504 10493 10534 10539 10534 10528 10525 10522 10520 10524 10524
10105 10116 10130 10145 10156 10167 10175 10191 10200 10226 10240 10256 10276 10299 10315 10331 10344 10363 10369 10376 10381 10387 10386 10387 10398 10409 10429 10429 10428 10445 10442 10439 10432 10467 10456 10487 10480 10517 10503 10499 10500 10495 10498 10493 10494
10094 10103 10116 10126 10137 10147 10158 10157 10176 10199 10218 10235 10253 10268 10292 10307 10333 10347 10352 10352 10358 10357 10360 10364 10378 10376 10392 10403 10402 10405 10409 10421 10440 10445 10432 10453 10455 10481 10473 10463 10475 10469 10466 10466 10465
10084 10094 10105 10112 10118 10131 10148 10161 10175 10188 10198 10213 10233 10239 10261 10284 10305 10311 10318 10323 10328 10330 10333 10336 10353 10355 10368 10384 10369 10364 10416 10422 10409 10407 10418 10413 10442 10434 10439 10438 10437 10435 10439 10440 10436